Weather Service Report


586 
ASUS41 KPHI 300512
RWRPHI

REGIONAL WEATHER ROUNDUP
NATIONAL WEATHER SERVICE MOUNT HOLLY NJ
100 AM EDT FRI SEP 30 2016

NOTE:  "FAIR" INDICATES FEW OR NO CLOUDS BELOW 12,000 FEET WITH NO
SIGNIFICANT WEATHER AND/OR OBSTRUCTIONS TO VISIBILITY.

 * = STATION DOES NOT REPORT PRECIPITATION (E.G. RAIN, SNOW, ETC.) 
        OR FOG.

NJZ015>026-300600-
SOUTHERN NEW JERSEY
  
CITY           SKY/WX    TMP DP  RH WIND       PRES   REMARKS
POMONA         LGT RAIN  63  61  93 NE25G39   30.19F FOG              
MILLVILLE      HVY RAIN  62  62 100 NE14      30.17F FOG              
WRIGHTSTOWN    CLOUDY    59  57  94 NE17G24   30.22F                  
MOUNT HOLLY    LGT RAIN  59  58  96 NE9G20    30.25F FOG              
TRENTON        RAIN      57  54  89 NE15G22   30.28F                  

$$
NJZ001>014-300600-
NORTHERN NEW JERSEY
  
CITY           SKY/WX    TMP DP  RH WIND       PRES   REMARKS
SUSSEX         LGT RAIN  55  49  80 NE12      30.37F                  
ANDOVER*         N/A     53  49  86 VRB5      30.36S                  
MORRISTOWN     LGT RAIN  55  50  82 NE10      30.35F                  
NEWARK         LGT RAIN  59  52  77 NE14      30.34F                  
TETERBORO      CLOUDY    57  48  72 NE14G22   30.35F                  
CALDWELL       CLOUDY    56  49  77 NE9       30.36F                  
SOMERVILLE     LGT RAIN  56  52  86 VRB3      30.31F FOG              
ALLAIRE*       CLOUDY    62  57  83 E15G35    30.29F                  
TOMS RIVER*    CLOUDY    62  58  86 NE17G28   30.26F                  

$$
PAZ043-044-047-054-055-060>062-066>071-300600-
EASTERN PENNSYLVANIA
  
CITY           SKY/WX    TMP DP  RH WIND       PRES   REMARKS
PHILADELPHIA   RAIN      60  57  89 NE20G25   30.22F FOG              
NORTH PHILA    LGT RAIN  59  57  93 NE17G24   30.28F                  
BLUE BELL*     CLOUDY    55  54  94 NE12G25   30.25F                  
DOYLESTOWN     LGT RAIN  58  55  90 NE9G21    30.28F                  
QUAKERTOWN*    CLOUDY    57  54  88 NE9G16    30.30F                  
PERKASIE*      CLOUDY    55  55 100 NE18      30.30F                  
POTTSTOWN      LGT RAIN  57  54  89 NE13G22   30.28F                  
LANCASTER      RAIN      58  57  97 E13G21    30.24F                  
COATESVILLE    LGT RAIN  55  55 100 NE7G30    30.26R                  
READING        RAIN      58  54  86 VRB5      30.27S                  
ALLENTOWN      CLOUDY    57  52  83 NE14      30.31F                  
MOUNT POCONO   LGT RAIN  49  46  90 E16G23    30.34F                  
HAZLETON       RAIN      52  50  93 E13G21    30.31                   
LEHIGHTON      LGT RAIN  54  52  94 NE6       30.32F                  
WILKES BARRE   LGT RAIN  55  49  80 NE12      30.32S                  

$$
DEZALL-MDZ008-012-015-019-020-300600-
DELAWARE AND EASTERN MARYLAND
  
CITY           SKY/WX    TMP DP  RH WIND       PRES   REMARKS
WILMINGTON     RAIN      61  58  90 NE20G26   30.22F                  
DOVER          LGT RAIN  64  64 100 NE17G24   30.15F                  
GEORGETOWN     HVY RAIN  67 N/A N/A NE16G24   30.12F                  
PATUXENT       CLOUDY    67  65  93 E12G23    30.08F                  
OCEAN CITY     CLOUDY   N/A N/A N/A E25G37    30.05F                  
WALLOPS ISLAND LGT RAIN  73  72  96 E15       30.04F                  
CAMBRIDGE      CLOUDY    64  63  94 NE10G16   30.10F                  
SALISBURY      RAIN      69  68  96 NE16      30.06F FOG              

$$
PAZ001-021-NYZ056-072-MDZ011-DCZ001-300600-
OTHER NEARBY LOCATIONS
  
CITY           SKY/WX    TMP DP  RH WIND       PRES   REMARKS
HARRISBURG     LGT RAIN  59  57  93 E9        30.24F                  
STATE COLLEGE  CLOUDY    55  53  94 NE9       30.26F                  
WILLIAMSPORT   CLOUDY    59  52  77 E13       30.29F                  
BINGHAMTON     LGT RAIN  53  45  74 E7        30.34S                  
NEW YORK CITY  CLOUDY    58  50  75 E9        30.38S                  
BALTIMORE      LGT RAIN  62  60  93 E21       30.17F                  
WASHINGTON DC  LGT RAIN  65  64  97 NE17G25   30.14F                  

$$
  

Return to Home page


Western Regional Climate Center, wrcc@dri.edu